Showing default

CS2, 49262

Orbit data source: Space-Track

CS2, 49262 is a payload satellite owned by Cesium (US) in SSO that was launched on Mon, 27 Sep 2021 UTC via an ATLAS V 401 launch vehicle from the Air Force Western Test Range (AFWTR). Payload-class satellites include a variety of spacecraft equipped with specific instruments for various scientific and technological missions. These include communications satellites like Starlink; space stations such as the ISS; scientific satellites like the Hubble; Earth observation satellites from companies like Planet Labs, Umbra, and HawkEye 360; GPS; miniature CubeSats for education and research; and military/defense satellites.

Loading next visibility...
Identifier
49262, 2021-088C
Orbit
SSO
Country
Flag of USUS
Related business
Manufacturer
Cesium
Mission
Operational Commercial Technology
Bus & Motor
CUBESAT 6U, Unknown motor
Mass
~10 kg wet, 10 kg dry
Launch date (UTC)
2021-09-27 (4 years ago)
Launch vehicle
ATLAS V 401
Launch site
Air Force Western Test Range (AFWTR)
Object type
Payload
Rocket body
Debris
Shape & HBR
Box + 3 Pan, 0.5 m
Radar Cross Section
0.150 m², Medium (>0.1 m² and < 1m²)

Expand to show TLE details & history
Last TLE update: 20 hours ago

TLE from 20 hours ago
0 CS2
1 49262U 21088C   25348.14886842  .00016242  00000-0  55908-3 0  9990
2 49262  97.4104  48.8112 0011781  29.3794 330.8107 15.30063782232167
Epoch: 2025-12-14T03:34Z
TLE epoch observation values (Epoch: 2025-12-14T03:34:22.231Z)
Latitude
0.00002°
Longitude
-87.84737°
Altitude
471.677 km
Speed
7.634 km/s
True Right ascension
03h 15m 14s
True Declination
0° 00' 00"
Sunlit
Object was in full shadow at epoch
Visualization orbit readout
Latitude
Unknown
Longitude
Unknown
Altitude
Unknown
Speed
Unknown
Apparent Right ascension
Unknown
Apparent Declination
Unknown
Sunlit
N/A
Visualization observer readout
Local Sidereal Time
22:31:58
Azimuth
Unknown
Elevation
Unknown
Doppler factor
Unknown
Orbital elements
Apogee altitude
480.645 km
Perigee altitude
464.504 km
Semi-major axis
6,850.711 km
Eccentricity
0.00118
Inclination
97.4104°
RAAN
48.8112°
Arg. of periapsis
29.3794°
True anomaly
330.74478°
Mean anomaly
330.8107°
Eccentric anomaly
330.77775°
Mean motion
3.82772 °/min
Orbital period
94.05 mins
BSTAR
0.00055908
Loading maneuver chart data...
Computing Atmospheric mass density...
Loading historical data...
Loading historical data...
Loading historical data...
Loading historical data...
Loading historical data...
Loading historical data...
Loading historical data...
Other satellites on launch #88 in the year 2021 (2021-09-27 UTC)

Documentation

Showing up to 5 results
|